Regional Weather Roundup
Issued by NWS Bismarck, ND

Home | Current Version | Previous Version | Text Only | Print | Product List | Glossary On
Versions: 1 2 3 4 5 6 7 8 9 10 11 12 13 14 15 16 17 18 19 20 21 22 23 24 25 26 27 28 29 30 31 32 33 34 35 36 37 38 39 40 41 42 43 44 45 46 47 48 49 50
000
ASUS43 KBIS 281559
RWRBIS

NWR BROADCAST TEXT
NATIONAL WEATHER SERVICE BISMARCK ND
1000 AM CST FRI NOV 28 2014

NOTE: "FAIR" INDICATES FEW OR NO CLOUDS BELOW 12,000 FEET WITH NO
SIGNIFICANT WEATHER AND/OR OBSTRUCTIONS TO VISIBILITY.


CITY           SKY/WX    TMP DP  RH WIND       PRES   REMARKS
WILLISTON      CLOUDY    16  12  84 E10       29.65F WCI   4
MINOT          CLOUDY     9   4  80 E15       29.76F WCI  -8
MINOT AFB      NOT AVBL
BISMARCK       PTSUNNY   13   8  81 E9        29.78S WCI   1
DICKINSON      NOT AVBL
GARRISON         N/A     12   9  87 E14       29.73F WCI  -3
HETTINGER ARPT CLOUDY    31  25  78 CALM      29.64F
JAMESTOWN      CLOUDY     9   4  80 SE13      29.82F WCI  -7
CARRINGTON     CLOUDY     9   7  92 E14       29.83F WCI  -8
CROSBY         FLURRIES   9   7  92 E13       29.68F WCI  -7
OAKES            N/A     10   7  85 E15       29.83F WCI  -6
$$

CITY           SKY/WX    TMP DP  RH WIND       PRES   REMARKS
GRAND FORKS    LGT SNOW  13   9  84 E7        29.94F FOG     WCI   3
GRAND FORKS AF NOT AVBL
DEVILS LAKE    CLOUDY    10   0  61 SE13      29.84F WCI  -5
FARGO          CLOUDY    15   6  67 SE10      29.93S WCI   2
GRAFTON        CLOUDY    12   9  85 E7        29.97S FOG     WCI   2
$$

CITY           SKY/WX    TMP DP  RH WIND       PRES   REMARKS
ABERDEEN       CLOUDY    18  12  77 NE9       29.81F WCI   7
MOBRIDGE       CLOUDY    20  15  81 E9        29.70F WCI   9
BUFFALO          N/A     41  30  65 SE3       29.57F
RAPID CITY     MOSUNNY   43  31  62 CALM      29.70F
GLASGOW        CLOUDY    18  16  92 SE15      29.54F FOG     WCI   4
SIDNEY         PTSUNNY   21  18  86 CALM      29.63S
WOLF POINT     CLOUDY    19  16  88 E10       29.59F FOG     WCI   7
GLENDIVE       CLOUDY    23  21  93 CALM      29.60S
MILES CITY     CLOUDY    38  32  79 SE10      29.58F
BAKER          CLOUDY    44  31  60 SW12      29.61F
$$

CITY           SKY/WX    TMP DP  RH WIND       PRES   REMARKS
BILLINGS       CLOUDY    49  27  42 SW13      29.63S
GREAT FALLS    PTCLDY    51  33  50 SW28G43   29.48F
$$



USA.gov is the U.S. government's official web portal to all federal, state and local government web resources and services.